Regional Weather Roundup
Issued by NWS

Home | Current Version | Previous Version | Text Only | Print | Product List | Glossary Off
Versions: 1 2 3 4 5 6 7 8 9 10 11 12 13 14 15 16 17 18 19 20 21 22 23 24 25 26 27

000
ASUS45 KBOU 191007
RWRCO

WEATHER ROUNDUP FOR COLORADO
NATIONAL WEATHER SERVICE DENVER/BOULDER CO
400 AM MDT THU OCT 19 2017

NOTE: "FAIR" INDICATES FEW OR NO CLOUDS BELOW 12000 FEET WITH NO
SIGNIFICANT WEATHER AND/OR OBSTRUCTIONS TO VISIBILITY.

COZ001>005-013-030-031-191100-
...NORTHWEST COLORADO...

CITY           SKY/WX    TMP DP  RH WIND       PRES   REMARKS
CRAIG          FAIR      24  17  74 CALM      30.18F
HAYDEN         FAIR      37  15  40 E10       30.19F
MEEKER         FAIR      33  17  51 NE3       30.17F
RABBIT EARS PA FAIR      43   9  24 S6        30.37S
STEAMBOAT SPGS FAIR      32  15  48 CALM      30.21S
WALDEN         NOT AVBL
$$

COZ006>008-011-191100-
...WEST CENTRAL VALLEYS...

CITY           SKY/WX    TMP DP  RH WIND       PRES   REMARKS
GRAND JUNCTION FAIR      47  17  30 SE10      30.09F
MONTROSE       FAIR      38  21  50 SE7       30.17F
EAGLE          FAIR      30  17  58 CALM      30.27S
RIFLE          FAIR      36  19  50 E3        30.16F
DELTA          FAIR      40  19  41 N3        30.15F
NUCLA          FAIR      43  16  33 E5        30.19F
$$

COZ017>023-064>068-191100-
...SOUTHWEST COLORADO...

CITY           SKY/WX    TMP DP  RH WIND       PRES   REMARKS
DURANGO        FAIR      38  23  55 CALM      30.20F
CORTEZ         FAIR      36  26  67 CALM      30.15F
PAGOSA SPRINGS FAIR      37  17  45 CALM      30.26F
TELLURIDE      NOT AVBL
WOLF CREEK PAS FAIR      37   9  30 SW5       30.52S
$$

COZ009-010-012-014-032>034-037-058>063-191100-
...CENTRAL COLORADO...

CITY           SKY/WX    TMP DP  RH WIND       PRES   REMARKS
ASPEN          FAIR      35  17  47 S3        30.24F
BUENA VISTA    FAIR      32  14  48 CALM      30.30F
COPPER MTN     FAIR      45   1  16 SW13      30.47S
BERTHOUD PASS  FAIR      34  27  75 W10G21    30.48S WCI  26
COTTONWOOD PAS FAIR      50  -2  11 CALM      30.37S
GUNNISON       FAIR      24  15  68 CALM      30.32F
KREMMLING      FAIR      27  19  74 CALM      30.30F
LEADVILLE      FAIR      25  10  53 CALM      30.36F
MONARCH PASS   FAIR      37   3  23 S13       30.57F
SALIDA         NOT AVBL
SUNLIGHT       FAIR      39   1  20 SW8       30.41F
WILKERSON PASS FAIR      37   3  23 SW13      30.45F
$$

COZ069>075-191100-
...SAN LUIS VALLEY/SANGRE DE CRISTO MOUNTAINS...

CITY           SKY/WX    TMP DP  RH WIND       PRES   REMARKS
ALAMOSA        FAIR      28  18  66 NW5       30.26F WCI  23
DEL NORTE      FAIR      37  14  40 W13       30.29S
LA VETA PASS   FAIR      45  14  29 SW16      30.48F
SAGUACHE       FAIR      36  12  38 NW15      30.29S
$$

COZ035-036-038>040-191100-
...NORTHERN COLORADO FRONT RANGE...

CITY           SKY/WX    TMP DP  RH WIND       PRES   REMARKS
DENVER INTL AP FAIR      50  21  32 W10       30.08F
DMNS CITY PARK   N/A     42  26  52 CALM      30.08S
AURORA         PTCLDY    50  25  37 S10       30.10S
FRONT RANGE AP FAIR      50  27  40 S12G18    30.09F
ERIE MUNI ARPT FAIR      34  28  77 CALM      30.14F
BOULDER MUN AP FAIR      43  23  45 S3        30.08F
CENTENNIAL     FAIR      46  25  43 S7        30.11F
BROOMFIELD     FAIR      50  21  32 CALM      30.10F
FORT COLLINS   FAIR      42  27  55 N3        30.08F
LONGMONT       FAIR      37  26  66 CALM      30.10F
$$

COZ041-046-047-076>085-087-088-191100-
...PIKES PEAK/PALMER DIVIDE AND SOUTHERN FOOTHILLS...

CITY           SKY/WX    TMP DP  RH WIND       PRES   REMARKS
COLO. SPRINGS  FAIR      45  25  45 N7        30.16F
A. F. ACADEMY  CLEAR     34  22  63 N12       30.17F WCI  25
SCHRIEVER AFB  FAIR      44  23  44 MISG      30.16F
CHEYENNE MTN   NOT AVBL
ELLICOTT       FAIR     N/A N/A N/A CALM      30.15F
FALCON         FAIR      43  24  46 W10       30.19F
FORT CARSON    FAIR      42  24  50 NW8       30.13F
LIMON          FAIR      28  26  92 N5        30.13F WCI  23
MONUMENT HILL  NOT AVBL
CANON CITY     CLEAR     48  21  34 W13       30.12F
WALSENBURG     NOT AVBL
TRINIDAD       FAIR      50  22  33 W13       30.14F
$$

COZ042>045-048>051-090-091-191100-
...NORTHEAST COLORADO...

CITY           SKY/WX    TMP DP  RH WIND       PRES   REMARKS
GREELEY ARPT   FAIR      32  27  81 NW7       30.08F WCI  26
AKRON          FAIR      50  29  44 S14       30.08F
BURLINGTON     FAIR      36  31  82 S7        30.09F
WRAY           FAIR      36  32  87 W5        30.09F
YUMA           NOT AVBL
STERLING       FAIR      37  32  81 CALM      30.07F
HOLYOKE        FAIR      37  34  87 W6        30.09F
FORT MORGAN    FAIR      43  24  46 NE5       30.08F
$$

COZ086-089-092>099-191100-
...SOUTHEAST COLORADO...

CITY           SKY/WX    TMP DP  RH WIND       PRES   REMARKS
PUEBLO         FAIR      40  28  62 SW6       30.11F
LA JUNTA       FAIR      39  32  76 CALM      30.09F
LAMAR          FLURRIES  34  28  79 S7        30.06F WCI  28
SPRINGFIELD      N/A     41  37  86 W5        30.07F
$$




USA.gov is the U.S. government's official web portal to all federal, state and local government web resources and services.